Location: Caltech
(34.1382°N, 118.1253°W)
Time: 17:32:54
(UTC-07:00)

PANSAT - Visible Passes

Search period start: 27 March 2015 00:00
Search period end: 06 April 2015 00:00
Orbit: 486 x 491 km, 28.5° (Epoch: 27 March)

Date Brightness Start Highest point End Pass type
(mag) Time Alt. Az. Time Alt. Az. Time Alt. Az.
01 Apr 10.3 21:19:39 10° SW 21:19:48 11° SW 21:19:48 11° SW visible
02 Apr 9.3 20:52:39 10° SW 20:54:42 22° SSW 20:54:42 22° SSW visible
03 Apr 8.8 20:25:39 10° SW 20:28:51 26° SSE 20:29:31 25° SSE visible
04 Apr 8.8 19:58:38 10° SW 20:01:52 26° S 20:04:15 15° ESE visible
04 Apr 10.4 21:38:04 10° WSW 21:38:33 13° WSW 21:38:33 13° WSW visible
05 Apr 9.2 21:11:05 10° WSW 21:13:12 26° SW 21:13:12 26° SW visible
